Lundi 10 décembre 2018   -   semaine 50                    on fête: Romaric                    soleil  (-1 mn) lever du soleil 08:17:00 coucher du soleil 17:00:00                    lune Premier croissant
Sélection

Sélection d'un SYNOP

   Synop:       

  Période à consulter:

Actuelle
Archive     

Relevé

Dernier relevé du SYNOP pour la période choisie

Conditions météo à la station de Vichy/Charmeil (4610N 00324E)    altitude 251m

Date du relevé10/12/2018 à 22:00
Visibilité20km
Vent4 km/h ONO
Température6.2 C
Température mini / 12h0.0 C
Humidité88.2 %
Point de rosée4.4 C
Pression absolue998.5 hPa
Pression relative1029.4 hPa
Variation pression-0.6 hPa stationnaire ou en hausse puis en baisse, puis en baisse plus rapide

24h

Historique de la période choisie

Certaines stations ne diffusent pas en continu, d'où l'absence possible de données à certaines heures. Le tableau ci-dessous récapitule l'historique des relevés de la station de Vichy/Charmeil.

Date - Heure Base des nuages Visibilité Nébulosité Vent - Secteur Température Humidité Point rosée Pression / Géopotentiel Précipitations Temps
10/12 22:00 20km 4 km/h ONO 6.2 C 88.2 % 4.4 C 1029.4 hPa
10/12 21:00 20km 0 km/h N 5.2 C 95.2 % 4.5 C 1029.8 hPa
10/12 20:00 20km 0 km/h N 5.0 C 91.9 % 3.8 C 1030.2 hPa
10/12 19:00 18km 6 km/h N 7.0 C 82.9 % 4.3 C 1029.9 hPa traces/12h
10/12 18:00 20km 2 km/h O 6.5 C 82.9 % 3.8 C 1029.7 hPa
10/12 17:00 20km 2 km/h ONO 7.6 C 77.9 % 4.0 C 1029.4 hPa
10/12 16:00 18km 4 km/h NO 8.5 C 74.9 % 4.3 C 1029.5 hPa
10/12 15:00 20km 4 km/h ONO 8.6 C 72.8 % 4.0 C 1029.6 hPa
10/12 14:00 19km 6 km/h ONO 8.8 C 69.8 % 3.6 C 1029.6 hPa
10/12 13:00 20km 7 km/h NNO 9.1 C 68.9 % 3.7 C 1030.1 hPa traces/6h
10/12 12:00 20km 6 km/h NNO 8.6 C 77.0 % 4.8 C 1030.6 hPa
10/12 11:00 19km 6 km/h NO 8.6 C 82.0 % 5.7 C 1030.7 hPa
10/12 10:00 19km 4 km/h NO 7.9 C 84.8 % 5.5 C 1030.2 hPa
10/12 09:00 20km 4 km/h NO 7.5 C 85.9 % 5.3 C 1029.9 hPa
10/12 08:00 19km 4 km/h NNO 7.6 C 85.9 % 5.4 C 1029.4 hPa
10/12 07:00 20km 2 km/h O 7.2 C 85.9 % 5.0 C 1029.2 hPa traces/12h
10/12 06:00 20km 4 km/h ONO 7.8 C 80.7 % 4.7 C 1028.8 hPa
10/12 05:00 20km 6 km/h ONO 8.5 C 80.8 % 5.4 C 1028.6 hPa
10/12 04:00 20km 6 km/h NO 8.6 C 79.7 % 5.3 C 1028.4 hPa
10/12 03:00 20km 4 km/h ONO 8.7 C 79.2 % 5.3 C 1028.4 hPa
10/12 02:00 20km 6 km/h ONO 8.6 C 75.9 % 4.6 C 1027.8 hPa
10/12 01:00 20km 9 km/h ONO 9.3 C 73.0 % 4.7 C 1027.6 hPa 0 mm/6h
10/12 00:00 20km 9 km/h ONO 9.7 C 72.0 % 4.9 C 1027.1 hPa
09/12 23:00 20km 7 km/h ONO 9.8 C 74.1 % 5.4 C 1026.1 hPa

Source: ogimet